Regional Weather Roundup
Issued by NWS

Home | Current Version | Previous Version | Text Only | Print | Product List | Glossary Off
Versions: 1 2 3 4 5 6 7 8 9 10 11 12 13 14 15 16 17 18 19 20 21 22 23 24 25 26 27 28 29 30 31 32 33 34 35 36 37 38 39 40 41 42 43 44 45 46 47 48 49 50

000
ASUS43 KMPX 270501
RWRMN
WEATHER ROUNDUP FOR MINNESOTA
NATIONAL WEATHER SERVICE TWIN CITIES/CHANHASSEN MN
1200 AM CDT THU APR 27 2017


NOTE: "FAIR" INDICATES FEW OR NO CLOUDS BELOW 12,000 FEET WITH NO
SIGNIFICANT WEATHER AND/OR OBSTRUCTIONS TO VISIBILITY. N/A MEANS
CURRENT SKY AND/OR WEATHER CONDITIONS ARE NOT AVAILABLE.

MNZ060>063-068>070-270600-
   Twin Cities Metro

CITY           SKY/WX    TMP DP  RH WIND       PRES   REMARKS
TWIN CITIES    CLOUDY    36  30  79 N8        29.59R
ST PAUL        CLOUDY    37  32  82 NW9       29.60R
CRYSTAL        CLOUDY    35  31  85 NW8       29.59R WCI  29
LAKEVILLE      CLOUDY    34  34 100 NW9       29.58S WCI  26
EDEN PRAIRIE   CLOUDY    35  32  88 NW9       29.59R FOG     WCI  28
SOUTH ST PAUL  CLOUDY    37  33  85 N6        29.59S
LAKE ELMO      MIX PCPN  36  34  93 N6        29.59R
$$
MNZ001>005-007-008-013>017-022>024-027-028-270600-
   Northwest Minnesota

CITY           SKY/WX    TMP DP  RH WIND       PRES   REMARKS
BEMIDJI        FLURRIES  24  21  90 NE8       29.65F WCI  15
HALLOCK        CLOUDY    30  28  93 NE12      29.78F WCI  21
ROSEAU         LGT SNOW  27  23  86 NE20G28   29.75F WCI  13
WARROAD        LGT SNOW  27  23  86 NE23G35   29.76F VSB 1   WCI  12
THIEF RVR FALL LGT SNOW  26  24  92 NE17      29.72F FOG     WCI  13
CROOKSTON      FLURRIES  28  27  93 NE9       29.75F WCI  20
FOSSTON        LGT SNOW  25  21  86 N13       29.68F WCI  13
DETROIT LAKES  CLOUDY    28  27  93 CALM      29.65F
MOORHEAD       DRIZZLE   27  25  93 N8        29.70F WCI  18
PARK RAPIDS    CLOUDY    27  21  78 N10       29.62F WCI  17
MAHNOMEN       CLOUDY    26  24  91 N6        29.66F WCI  20
$$
MNZ006-009>011-018-025>026-270600-
   North Central Minnesota

CITY           SKY/WX    TMP DP  RH WIND       PRES   REMARKS
BAUDETTE       CLOUDY    25  18  74 NE15      29.72F WCI  13
FLAG ISLAND    FLURRIES  27  19  74 NE16G28   29.77F WCI  14
INTL FALLS     CLOUDY    24  16  71 NE9G22    29.68F WCI  14
WASKISH        FLURRIES  25  19  80 NE13      29.68F WCI  13
BIG FORK       CLOUDY    25  18  74 N9        29.64F WCI  15
LONGVILLE      LGT SNOW  27  25  93 N6        29.62S WCI  20
CRANE LAKE     CLOUDY    21  16  79 NE5       29.68F WCI  15
ORR            CLOUDY    21  16  79 N3        29.62S
COOK           CLOUDY    21  18  86 NE8       29.63F WCI  12
WALKER         CLOUDY    24  21  86 N7        29.63S WCI  16
$$
MNZ012-019>021-037-270600-
   Northeast Minnesota

CITY           SKY/WX    TMP DP  RH WIND       PRES   REMARKS
DULUTH         CLOUDY    25  22  88 NE9       29.57F WCI  15
ELY            CLOUDY    21  18  86 N9        29.61F WCI  11
HIBBING        CLOUDY    23  19  85 N9        29.60F WCI  13
EVELETH        CLOUDY    23  18  79 NE6       29.61F WCI  16
DULUTH HARBOR  CLOUDY    30  27  86 N12       29.62S WCI  21
TWO HARBORS    CLOUDY    28  23  80 N6        29.58S WCI  22
SILVER BAY     CLOUDY    25  21  86 N5        29.58F WCI  19
GRAND MARAIS     N/A     24  19  81 N13G23    29.61R WCI  12
G MARAIS ARPRT CLOUDY    18  12  79 N3        29.55S
$$
MNZ029>031-032-039>041-046>048-054>057-064-270600-
   West Central Minnesota

CITY           SKY/WX    TMP DP  RH WIND       PRES   REMARKS
FERGUS FALLS   CLOUDY    28  27  93 N9        29.66S WCI  20
WHEATON        CLOUDY    28  27  93 NW14      29.70S WCI  17
MORRIS         CLOUDY    30  28  93 NW14      29.64S WCI  20
ALEXANDRIA     CLOUDY    29  26  89 N9        29.62S WCI  20
ELBOW LAKE     CLOUDY    30  28  93 N9        29.65S WCI  22
WADENA         MIX PCPN  27  25  93 N3        29.62S
GLENWOOD       MOCLDY    28  27  93 N5        29.62S WCI  23
APPLETON       CLOUDY    30  28  93 NW10      29.66S WCI  21
BENSON         CLOUDY    34  27  75 N10       29.66S WCI  26
ORTONVILLE     CLOUDY    28  27  93 N10G18    29.67S WCI  19
MADISON        CLOUDY    34  30  86 NW15      29.67S WCI  24
WILLMAR        CLOUDY    34  30  86 N8        29.64R WCI  27
$$
MNZ033>034-036-042>043-049>051-058-059-270600-
   Central Minnesota

CITY           SKY/WX    TMP DP  RH WIND       PRES   REMARKS
ST CLOUD       CLOUDY    31  30  96 N8        29.61R WCI  23
SAUK CENTRE    CLOUDY    29  26  88 NW9       29.63R WCI  21
PAYNESVILLE    CLOUDY    31  31 100 NW6       29.63R WCI  25
AITKIN         CLOUDY    30  25  80 N6        29.59S WCI  24
PINE RIVER     LGT SNOW  27  27 100 N6        29.65F WCI  20
BRAINERD       CLOUDY    29  27  92 N8        29.61S WCI  21
STAPLES        CLOUDY    27  27 100 N5        29.61F WCI  21
LONG PRAIRIE   CLOUDY    28  27  93 CALM      29.62S
LITTLE FALLS   CLOUDY    30  28  93 CALM      29.61S
LITCHFIELD     CLOUDY    34  30  86 N6        29.63R WCI  29
BUFFALO        CLOUDY    32  31  95 NW8       29.62R FOG     WCI  25
MAPLE LAKE     CLOUDY    33  32  96 NW8       29.62R FOG     WCI  26
HUTCHINSON     LGT SNOW  34  32  92 NW10      29.62S WCI  26
$$
MNZ037-044-045-052-053-270600-
   East Central Minnesota

CITY           SKY/WX    TMP DP  RH WIND       PRES   REMARKS
PRINCETON      CLOUDY    34  30  86 N5        29.60S WCI  30
MORA           CLOUDY    32  28  86 CALM      29.62R
CAMBRIDGE      CLOUDY    36  30  80 NW5       29.58R
RUSH CITY      CLOUDY    33  30  90 N7        29.60R WCI  27
MOOSE LAKE     CLOUDY    30  25  80 N6        29.58S WCI  24
HINCKLEY       CLOUDY    32  30  93 NE7       29.60R WCI  26
CLOQUET        CLOUDY    27  23  86 N5        29.59R WCI  21
MCGREGOR       CLOUDY    28  27  93 NE5       29.60S WCI  23
$$
MNZ071>073-080-081-089-090-097-098-270600-
   Southwest Minnesota

CITY           SKY/WX    TMP DP  RH WIND       PRES   REMARKS
MONTEVIDEO     CLOUDY    30  28  93 N10       29.66R WCI  21
GRANITE FALLS  CLOUDY    32  30  91 NW13      29.67S WCI  22
CANBY          CLOUDY    31  28  86 W13       29.69S WCI  21
MARSHALL       CLOUDY    30  27  88 NW14      29.66S WCI  19
REDWOOD FALLS  CLOUDY    32  29  88 NW10      29.63S WCI  24
OLIVIA         CLOUDY    32  30  93 NW12      29.63S WCI  23
PIPESTONE      CLOUDY    30  21  69 N10G18    29.65S WCI  21
WINDOM         CLOUDY    30  28  93 NW14G22   29.62F WCI  20
WORTHINGTON    CLOUDY    29  27  92 NW18      29.62F WCI  16
JACKSON        CLOUDY    30  28  93 NW17      29.61F WCI  18
TRACY          CLOUDY    31  29  90 NW14      29.65F WCI  21
SLAYTON        CLOUDY    28  27  94 NW16      29.66S WCI  16
$$
MNZ065>067-074>077-082>085-091>093-270600-
   South Central Minnesota

CITY           SKY/WX    TMP DP  RH WIND       PRES   REMARKS
MANKATO        CLOUDY    34  31  88 NW10      29.60F WCI  26
NEW ULM        LGT SNOW  34  32  93 NW10      29.61F WCI  26
ST JAMES       CLOUDY    32  30  93 NW16      29.62F WCI  21
FAIRMONT       CLOUDY    32  30  92 NW16      29.61F WCI  21
GLENCOE        CLOUDY    34  33  94 NW8       29.60F WCI  27
FARIBAULT      CLOUDY    36  34  93 NW7       29.59S FOG
OWATONNA       DRIZZLE   36  34  93 NW14      29.57F
WASECA         DRIZZLE   34  32  93 NW10      29.59F WCI  26
ALBERT LEA     CLOUDY    34  32  93 NW10G16   29.55F FOG     WCI  26
$$
MNZ078>079-086>088-094>096-270600-
   Southeast Minnesota

CITY           SKY/WX    TMP DP  RH WIND       PRES   REMARKS
ROCHESTER      LGT RAIN  36  35  96 NW15      29.52F FOG
RED WING       CLOUDY    37  32  81 NW5       29.56S
STANTON        CLOUDY    37  34  89 NW8       29.57S
DODGE CENTER   CLOUDY    36  34  93 NW12      29.54F
WINONA         CLOUDY    37  37 100 NW9       29.53F FOG
AUSTIN         CLOUDY    36  34  93 NW12G17   29.53F FOG
PRESTON        CLOUDY    36  34  92 NW9       29.53S
$$
ABBREVIATIONS USED IN REMARKS
   TC - TEMPERATURES IN CELSIUS
  WCI - WIND CHILL INDEX
   HX - HEAT INDEX
  VSB - VISIBILITY
$$




USA.gov is the U.S. government's official web portal to all federal, state and local government web resources and services.